Regional Weather Roundup
Issued by NWS Sioux Falls, SD

Home | Current Version | Previous Version | Text Only | Print | Product List | Glossary Off
Versions: 1 2 3 4 5 6 7 8 9 10 11 12 13 14 15 16 17 18 19 20 21 22 23 24 25 26 27 28 29 30 31 32 33 34 35 36 37 38 39 40 41 42 43 44 45 46 47 48 49 50

000
ASUS43 KFSD 290210
RWRFSD

WEATHER ROUNDUP FOR SE SOUTH DAKOTA/SW MINNESOTA/NW IOWA
NATIONAL WEATHER SERVICE SIOUX FALLS SD
900 PM CDT MON JUL 28 2014

NOTE: "FAIR" INDICATES FEW OR NO CLOUDS BELOW 12,000 FEET WITH NO
SIGNIFICANT WEATHER AND OR OBSTRUCTIONS TO VISIBILITY.


SDZ038>040-050-052>070-290300-
SOUTHEAST SOUTH DAKOTA

CITY           SKY/WX    TMP DP  RH WIND       PRES   REMARKS
CHAMBERLAIN    CLEAR     69  53  57 E6        30.21S
HURON          CLEAR     67  52  58 NE5       30.20F
MADISON        FAIR      59  59 100 N5        30.22S
MITCHELL       CLEAR     68  54  60 NE3       30.21S
SIOUX FALLS    PTCLDY    65  54  67 N3        30.21R
WINNER         FAIR      73  50  44 E7        30.22R
YANKTON          N/A    N/A N/A N/A NW5       30.19F
$$

MNZ071-072-080-081-089-090-097-098-290300-
SOUTHWEST MINNESOTA

CITY           SKY/WX    TMP DP  RH WIND       PRES   REMARKS
FAIRMONT       CLEAR     64  54  68 NW6       30.17S
JACKSON        CLEAR     63  54  72 NW5       30.20R
LUVERNE        CLEAR     68  54  60 NE3       30.21S
MARSHALL       CLEAR     63  52  67 NW6       30.19S
MONTEVIDEO     CLEAR     64  52  63 CALM      30.19S
PIPESTONE      CLEAR     64  54  68 CALM      30.22R
REDWOOD FALLS  CLEAR     65  54  67 NW5       30.17S
TRACY          CLEAR     63  56  78 NW5       30.20S
WINDOM         CLEAR     63  55  77 NW5       30.19S
WORTHINGTON    CLEAR     61  54  77 NW5       30.22R
$$

IAZ001>003-012>014-020>022-031-032-NEZ013-014-SDZ071-290300-
NORTHWEST IOWA

CITY           SKY/WX    TMP DP  RH WIND       PRES   REMARKS
CHEROKEE       CLEAR     66  59  79 CALM      30.19R
DENISON        PTCLDY    68  59  73 NE6       30.16S
ESTHERVILLE    CLEAR     62  56  80 NW5       30.18S
LE MARS        CLEAR     66  59  77 CALM      30.19S
ORANGE CITY    PTCLDY    70  55  60 NE5       30.20S
SHELDON        PTCLDY    63  59  88 NE5       30.19S
SIOUX CITY     MOCLDY    69  58  67 NW5       30.18S
SPENCER        CLEAR     65  56  72 N6        30.19S
STORM LAKE     MOCLDY    64  61  88 N6        30.20R
$$

ABBREVIATIONS USED IN REMARKS
   TC - TEMPERATURE IN CELSIUS
  WCI - WIND CHILL INDEX
   HX - HEAT INDEX
  VSB - VISIBILITY




USA.gov is the U.S. government's official web portal to all federal, state and local government web resources and services.